VTD146 UWLL-UWLL

Flight info

Callsign VTD146
Flight time 0h 42m
Altitude 2500
Route BOLKL LOMY PASLO/N0130F070 LOMY BOLKL
Aircraft DA42/L-SDEFGRY/C

Departure

Time 2026-05-04 13:02
Airport Ulyanovsk Baratayevka Airport (UWLL)

Arrival

Time 2026-05-04 13:44
Airport Ulyanovsk Baratayevka Airport (UWLL)
Time Latitude Longitude Altitude Speed Heading
2026-05-04 12:53 54.27157 48.23656 399 ft 0 kts 32°
2026-05-04 12:55 54.27161 48.23659 399 ft 2 kts 29°
2026-05-04 12:56 54.27188 48.23623 399 ft 9 kts 301°
2026-05-04 12:56 54.27157 48.23552 399 ft 13 kts 213°
2026-05-04 12:56 54.27062 48.23452 399 ft 17 kts 210°
2026-05-04 12:56 54.26969 48.23351 399 ft 15 kts 211°
2026-05-04 12:57 54.26942 48.23263 399 ft 11 kts 301°
2026-05-04 12:57 54.26994 48.23122 399 ft 15 kts 302°
2026-05-04 12:57 54.27015 48.22991 399 ft 11 kts 221°
2026-05-04 12:57 54.26928 48.22898 400 ft 15 kts 216°
2026-05-04 12:58 54.26957 48.22802 400 ft 13 kts 349°
2026-05-04 12:58 54.27002 48.22785 400 ft 0 kts 347°
2026-05-04 13:00 54.27005 48.22783 400 ft 2 kts 349°
2026-05-04 13:00 54.27051 48.22765 400 ft 12 kts 347°
2026-05-04 13:00 54.27147 48.22723 399 ft 12 kts 348°
2026-05-04 13:01 54.27181 48.22734 399 ft 0 kts 32°
2026-05-04 13:01 54.27241 48.22796 400 ft 37 kts 34°
2026-05-04 13:01 54.27624 48.23210 405 ft 88 kts 30°
2026-05-04 13:02 54.28166 48.23829 654 ft 96 kts 29°
2026-05-04 13:02 54.28742 48.24466 945 ft 103 kts 26°
2026-05-04 13:02 54.29381 48.25039 1261 ft 105 kts
2026-05-04 13:02 54.30069 48.24745 1493 ft 111 kts 319°
2026-05-04 13:03 54.30583 48.23592 1504 ft 131 kts 303°
2026-05-04 13:03 54.30917 48.22162 1518 ft 131 kts 269°
2026-05-04 13:03 54.30454 48.20829 1533 ft 138 kts 223°
2026-05-04 13:03 54.29649 48.19901 1477 ft 141 kts 215°
2026-05-04 13:04 54.28804 48.19045 1516 ft 141 kts 214°
2026-05-04 13:04 54.27970 48.18187 1498 ft 139 kts 214°
2026-05-04 13:04 54.27155 48.17309 1471 ft 140 kts 214°
2026-05-04 13:04 54.26325 48.16435 1506 ft 141 kts 216°
2026-05-04 13:05 54.25507 48.15573 1523 ft 137 kts 214°
2026-05-04 13:05 54.24696 48.14707 1486 ft 141 kts 214°
2026-05-04 13:05 54.23816 48.14148 1725 ft 133 kts 186°
2026-05-04 13:05 54.22908 48.14326 1963 ft 130 kts 174°
2026-05-04 13:06 54.22028 48.14562 2234 ft 128 kts 173°
2026-05-04 13:06 54.21139 48.14849 2503 ft 132 kts 168°
2026-05-04 13:06 54.20220 48.15320 2517 ft 145 kts 163°
2026-05-04 13:06 54.19259 48.15933 2595 ft 151 kts 160°
2026-05-04 13:07 54.18277 48.16655 2513 ft 156 kts 158°
2026-05-04 13:07 54.17299 48.17445 2521 ft 155 kts 156°
2026-05-04 13:07 54.16329 48.18214 2524 ft 152 kts 157°
2026-05-04 13:07 54.15377 48.18958 2535 ft 148 kts 158°
2026-05-04 13:08 54.14432 48.19646 2485 ft 148 kts 156°
2026-05-04 13:08 54.13512 48.20419 2508 ft 147 kts 154°
2026-05-04 13:08 54.12603 48.21250 2507 ft 148 kts 148°
2026-05-04 13:08 54.11882 48.22480 2567 ft 148 kts 125°
2026-05-04 13:09 54.11556 48.24130 2540 ft 148 kts 92°
2026-05-04 13:09 54.11536 48.25904 2541 ft 151 kts 86°
2026-05-04 13:09 54.11573 48.27700 2455 ft 150 kts 85°
2026-05-04 13:09 54.11620 48.29449 2516 ft 145 kts 84°
2026-05-04 13:10 54.11683 48.31166 2460 ft 146 kts 84°
2026-05-04 13:10 54.11704 48.32883 2479 ft 145 kts 88°
2026-05-04 13:10 54.11671 48.34602 2455 ft 146 kts 92°
2026-05-04 13:10 54.11615 48.36336 2415 ft 147 kts 93°
2026-05-04 13:11 54.11577 48.38051 2489 ft 145 kts 89°
2026-05-04 13:11 54.11545 48.39713 2822 ft 135 kts 90°
2026-05-04 13:11 54.11452 48.41261 3228 ft 128 kts 96°
2026-05-04 13:11 54.11320 48.42738 3587 ft 125 kts 98°
2026-05-04 13:12 54.11100 48.44182 3952 ft 124 kts 105°
2026-05-04 13:12 54.10814 48.45501 4367 ft 118 kts 109°
2026-05-04 13:12 54.10542 48.46783 4752 ft 114 kts 105°
2026-05-04 13:12 54.10462 48.48117 5026 ft 117 kts 71°
2026-05-04 13:13 54.10975 48.49311 5037 ft 136 kts 28°
2026-05-04 13:13 54.11878 48.49663 5073 ft 137 kts 349°
2026-05-04 13:13 54.12691 48.48895 5036 ft 137 kts 308°
2026-05-04 13:13 54.12988 48.47373 5016 ft 141 kts 269°
2026-05-04 13:14 54.12581 48.45859 4991 ft 148 kts 225°
2026-05-04 13:14 54.11597 48.45336 5035 ft 156 kts 176°
2026-05-04 13:14 54.10930 48.45774 5055 ft 160 kts 144°
2026-05-04 13:14 54.10163 48.47855 5011 ft 161 kts 84°
2026-05-04 13:15 54.10440 48.48968 5005 ft 154 kts 43°
2026-05-04 13:15 54.11394 48.49405 4988 ft 147 kts 337°
2026-05-04 13:15 54.11939 48.48068 5003 ft 147 kts 271°
2026-05-04 13:15 54.11434 48.46554 4989 ft 151 kts 236°
2026-05-04 13:16 54.11555 48.45086 4987 ft 145 kts 334°
2026-05-04 13:16 54.12350 48.45873 5028 ft 158 kts 76°
2026-05-04 13:16 54.11830 48.47420 5018 ft 160 kts 144°
2026-05-04 13:16 54.10960 48.48561 4997 ft 163 kts 109°
2026-05-04 13:17 54.11422 48.50026 4991 ft 150 kts
2026-05-04 13:17 54.12012 48.49022 4992 ft 143 kts 258°
2026-05-04 13:17 54.11188 48.48195 4993 ft 154 kts 182°
2026-05-04 13:17 54.10252 48.47737 4987 ft 136 kts 234°
2026-05-04 13:18 54.10189 48.46342 4978 ft 119 kts 291°
2026-05-04 13:18 54.10471 48.45055 4958 ft 113 kts 296°
2026-05-04 13:18 54.11087 48.44385 4975 ft 111 kts 356°
2026-05-04 13:18 54.11733 48.45056 4978 ft 116 kts 59°
2026-05-04 13:19 54.11736 48.46328 4956 ft 99 kts 104°
2026-05-04 13:19 54.11519 48.47347 4912 ft 88 kts 111°
2026-05-04 13:19 54.11236 48.48290 4989 ft 93 kts 120°
2026-05-04 13:19 54.11117 48.49436 5017 ft 108 kts 66°
2026-05-04 13:20 54.11691 48.50209 5024 ft 116 kts 359°
2026-05-04 13:20 54.12297 48.49484 4964 ft 105 kts 290°
2026-05-04 13:20 54.12474 48.48456 4923 ft 76 kts 292°
2026-05-04 13:20 54.12639 48.47730 4681 ft 80 kts 292°
2026-05-04 13:21 54.12800 48.46614 4556 ft 103 kts 265°
2026-05-04 13:21 54.12313 48.45763 4577 ft 119 kts 182°
2026-05-04 13:21 54.11648 48.46479 4545 ft 102 kts 137°
2026-05-04 13:21 54.11224 48.47191 4482 ft 76 kts 139°
2026-05-04 13:22 54.10869 48.48140 4186 ft 117 kts 106°
2026-05-04 13:22 54.10847 48.49489 4439 ft 113 kts 58°
2026-05-04 13:22 54.11426 48.50157 4842 ft 102 kts 353°
2026-05-04 13:22 54.11962 48.49471 4999 ft 109 kts 296°
2026-05-04 13:23 54.11934 48.48144 4964 ft 128 kts 238°
2026-05-04 13:23 54.11101 48.47436 4939 ft 139 kts 209°
2026-05-04 13:23 54.10722 48.46103 4726 ft 137 kts 290°
2026-05-04 13:23 54.11550 48.45624 4449 ft 153 kts 28°
2026-05-04 13:24 54.11744 48.47282 4188 ft 164 kts 123°
2026-05-04 13:24 54.10768 48.48177 4073 ft 160 kts 161°
2026-05-04 13:24 54.10207 48.49477 4396 ft 140 kts 87°
2026-05-04 13:25 54.11322 48.49846 5027 ft 109 kts 290°
2026-05-04 13:25 54.11647 48.48641 5057 ft 117 kts 300°
2026-05-04 13:25 54.11960 48.47351 5017 ft 121 kts 278°
2026-05-04 13:25 54.12263 48.46017 4959 ft 123 kts 309°
2026-05-04 13:26 54.13048 48.45892 4999 ft 125 kts 23°
2026-05-04 13:26 54.13381 48.47259 4962 ft 135 kts 93°
2026-05-04 13:26 54.12850 48.48447 5015 ft 129 kts 159°
2026-05-04 13:26 54.12069 48.48035 4980 ft 122 kts 234°
2026-05-04 13:27 54.12044 48.46660 4993 ft 122 kts 292°
2026-05-04 13:27 54.12146 48.45275 4944 ft 129 kts 242°
2026-05-04 13:27 54.11315 48.45100 5034 ft 138 kts 153°
2026-05-04 13:27 54.10767 48.46408 4923 ft 147 kts 91°
2026-05-04 13:28 54.11403 48.47470 4854 ft 137 kts 343°
2026-05-04 13:28 54.11865 48.46263 4951 ft 127 kts 283°
2026-05-04 13:28 54.12425 48.45151 4830 ft 139 kts 346°
2026-05-04 13:28 54.13320 48.45779 4692 ft 155 kts 53°
2026-05-04 13:29 54.13570 48.47566 4517 ft 160 kts 96°
2026-05-04 13:29 54.13356 48.49446 4305 ft 162 kts 105°
2026-05-04 13:29 54.12891 48.51148 4179 ft 158 kts 140°
2026-05-04 13:29 54.11870 48.51580 3959 ft 155 kts 201°
2026-05-04 13:30 54.10958 48.50879 4143 ft 135 kts 223°
2026-05-04 13:30 54.10387 48.49704 4268 ft 126 kts 245°
2026-05-04 13:30 54.10109 48.48361 4394 ft 116 kts 261°
2026-05-04 13:30 54.10162 48.47046 4552 ft 108 kts 287°
2026-05-04 13:31 54.10573 48.46043 4648 ft 103 kts 312°
2026-05-04 13:31 54.11237 48.45551 4734 ft 105 kts 341°
2026-05-04 13:31 54.11974 48.45670 4852 ft 109 kts
2026-05-04 13:31 54.12636 48.46319 4893 ft 114 kts 35°
2026-05-04 13:32 54.12901 48.47580 4974 ft 117 kts 82°
2026-05-04 13:32 54.12709 48.49002 4938 ft 133 kts 98°
2026-05-04 13:32 54.12541 48.50569 4937 ft 134 kts 96°
2026-05-04 13:32 54.11932 48.51472 4950 ft 123 kts 198°
2026-05-04 13:33 54.11720 48.50398 4949 ft 108 kts 286°
2026-05-04 13:33 54.12082 48.49266 4908 ft 110 kts 314°
2026-05-04 13:33 54.12674 48.48467 4941 ft 108 kts 313°
2026-05-04 13:33 54.12760 48.47281 4951 ft 115 kts 242°
2026-05-04 13:34 54.11998 48.46942 4976 ft 129 kts 160°
2026-05-04 13:34 54.11557 48.48210 4951 ft 135 kts 81°
2026-05-04 13:34 54.12129 48.49282 4990 ft 125 kts
2026-05-04 13:34 54.12739 48.48532 4984 ft 120 kts 280°
2026-05-04 13:35 54.12481 48.47163 4836 ft 125 kts 246°
2026-05-04 13:35 54.11646 48.44561 4415 ft 126 kts 246°
2026-05-04 13:35 54.11280 48.43202 4245 ft 125 kts 251°
2026-05-04 13:36 54.10965 48.41818 4055 ft 125 kts 252°
2026-05-04 13:36 54.10684 48.40384 3848 ft 130 kts 255°
2026-05-04 13:36 54.10469 48.38921 3679 ft 128 kts 263°
2026-05-04 13:36 54.10362 48.37406 3431 ft 129 kts 265°
2026-05-04 13:37 54.10299 48.35885 3251 ft 126 kts 273°
2026-05-04 13:37 54.10370 48.34389 3040 ft 128 kts 276°
2026-05-04 13:37 54.10473 48.32876 2869 ft 129 kts 279°
2026-05-04 13:37 54.10569 48.31863 2827 ft 131 kts 281°
2026-05-04 13:38 54.10806 48.29850 2695 ft 130 kts 283°
2026-05-04 13:38 54.10985 48.28315 2532 ft 132 kts 280°
2026-05-04 13:38 54.11127 48.26786 2470 ft 129 kts 279°
2026-05-04 13:38 54.11285 48.25269 2453 ft 130 kts 279°
2026-05-04 13:39 54.11433 48.23749 2501 ft 131 kts 280°
2026-05-04 13:39 54.11609 48.22192 2421 ft 135 kts 284°
2026-05-04 13:39 54.12135 48.20923 2451 ft 131 kts 324°
2026-05-04 13:39 54.13005 48.20399 2456 ft 134 kts 338°
2026-05-04 13:40 54.13878 48.19921 2515 ft 133 kts 339°
2026-05-04 13:40 54.14775 48.19454 2507 ft 136 kts 339°
2026-05-04 13:40 54.15682 48.18988 2425 ft 138 kts 340°
2026-05-04 13:40 54.16612 48.18537 2373 ft 140 kts 341°
2026-05-04 13:41 54.17572 48.18118 2256 ft 143 kts 343°
2026-05-04 13:41 54.18534 48.17709 2154 ft 141 kts 342°
2026-05-04 13:41 54.19461 48.17275 1989 ft 132 kts 342°
2026-05-04 13:42 54.21065 48.16652 1705 ft 107 kts 356°
2026-05-04 13:42 54.21761 48.16966 1601 ft 100 kts 25°
2026-05-04 13:42 54.22384 48.17583 1422 ft 106 kts 26°
2026-05-04 13:42 54.22998 48.18232 1297 ft 103 kts 27°
2026-05-04 13:43 54.23607 48.18880 1110 ft 103 kts 26°
2026-05-04 13:43 54.24199 48.19548 932 ft 100 kts 26°
2026-05-04 13:43 54.24785 48.20151 745 ft 96 kts 26°
2026-05-04 13:43 54.25353 48.20760 611 ft 97 kts 27°
2026-05-04 13:44 54.25912 48.21363 456 ft 92 kts 28°
2026-05-04 13:44 54.26417 48.21887 403 ft 71 kts 31°
2026-05-04 13:44 54.26696 48.22206 402 ft 24 kts 34°
2026-05-04 13:44 54.26836 48.22360 403 ft 27 kts 34°
2026-05-04 13:45 54.26990 48.22527 402 ft 26 kts 33°
2026-05-04 13:45 54.27114 48.22666 400 ft 14 kts 51°
2026-05-04 13:45 54.27061 48.22761 400 ft 16 kts 166°
2026-05-04 13:45 54.26993 48.22788 400 ft 0 kts 169°
2026-05-04 13:46 54.26926 48.22820 400 ft 11 kts 143°
2026-05-04 13:46 54.26958 48.22929 399 ft 15 kts 32°
2026-05-04 13:46 54.27023 48.23039 399 ft 12 kts 103°
2026-05-04 13:47 54.26967 48.23195 399 ft 14 kts 123°
2026-05-04 13:47 54.26943 48.23320 399 ft 11 kts 47°
2026-05-04 13:47 54.27029 48.23415 399 ft 17 kts 28°
2026-05-04 13:47 54.27117 48.23509 399 ft 14 kts 31°
2026-05-04 13:48 54.27161 48.23579 399 ft 6 kts 100°
2026-05-04 13:48 54.27147 48.23645 399 ft 6 kts 36°
2026-05-04 13:48 54.27157 48.23657 399 ft 0 kts 31°